Weather History for Sterling, IL

Change the Weather History Date:

Tuesday, December 4, 2012

  Actual Average Record
Temperature  
Mean Temperature 48 °F -  
Max Temperature 59 °F 38 °F 68 °F (1998)
Min Temperature 37 °F 25 °F -2 °F (1996)
Degree Days  
Heating Degree Days 17    
Moisture  
Dew Point 34 °F    
Average Humidity 65    
Maximum Humidity 87    
Minimum Humidity 36    
Precipitation  
Precipitation 0.00 in - - ()
Sea Level Pressure  
Sea Level Pressure 30.14 in    
Wind  
Wind Speed 8 mph (WNW)    
Max Wind Speed 20 mph    
Max Gust Speed 24 mph    
Visibility 10 miles    
Events      
Averages and records for this station are not official NWS values.
T = Trace of Precipitation, MM = Missing Value Source: NWS Daily Summary

Daily Weather History Graph

Daily Weather History Graph

Search for Another Location

Airport:

Trip Planner

Search our weather history database for the weather conditions in past years. The results will help you decide how hot, cold, wet, or windy it might be!

Date:

Astronomy

Dec. 04, 2012 Rise Set
Actual Time 7:09 AM CST 4:28 PM CST
Civil Twilight 6:38 AM CST 4:59 PM CST
Nautical Twilight 6:04 AM CST 5:34 PM CST
Astronomical Twilight 5:30 AM CST 6:07 PM CST
Moon 10:19 PM CST (12/4) 11:01 AM CST (12/4)
Length of Visible Light 10h 20m
Length of Day
9h 18m
Waning Gibbous, 69% of the Moon is Illuminated
Dec 4
Waning Gibbous
Dec 6
Last Quarter
Dec 13
New
Dec 19
First Quarter
Dec 28
Full

Hourly Weather History & Observations

Time (CST) Temp. Windchill Dew Point Humidity Pressure Visibility Wind Dir Wind Speed Gust Speed Precip Events Conditions
12:15 AM 48.2 °F - 42.8 °F 82% 29.96 in 10.0 mi West 6.9 mph - N/A   Scattered Clouds
12:55 AM 48.2 °F - 41.0 °F 76% 29.97 in 10.0 mi NW 8.1 mph - N/A   Partly Cloudy
1:35 AM 46.4 °F 42.9 °F 39.2 °F 76% 29.99 in 10.0 mi NW 6.9 mph - N/A   Clear
1:55 AM 46.4 °F 45.2 °F 39.2 °F 76% 30.00 in 10.0 mi NNW 3.5 mph - N/A   Clear
2:15 AM 46.4 °F 45.2 °F 39.2 °F 76% 30.00 in 10.0 mi NNW 3.5 mph - N/A   Clear
2:55 AM 46.4 °F 42.9 °F 37.4 °F 71% 30.01 in 10.0 mi NNW 6.9 mph - N/A   Clear
3:15 AM 46.4 °F 43.5 °F 37.4 °F 71% 30.02 in 10.0 mi NNW 5.8 mph - N/A   Clear
3:35 AM 46.4 °F 43.5 °F 37.4 °F 71% 30.03 in 10.0 mi NNW 5.8 mph - N/A   Clear
3:55 AM 46.4 °F 42.9 °F 35.6 °F 66% 30.05 in 10.0 mi NNW 6.9 mph - N/A   Clear
4:15 AM 46.4 °F 45.2 °F 35.6 °F 66% 30.06 in 10.0 mi WNW 3.5 mph - N/A   Clear
4:35 AM 44.6 °F 43.1 °F 35.6 °F 71% 30.06 in 10.0 mi West 3.5 mph - N/A   Clear
4:55 AM 44.6 °F 43.1 °F 35.6 °F 71% 30.07 in 10.0 mi West 3.5 mph - N/A   Clear
5:15 AM 44.6 °F 43.1 °F 37.4 °F 76% 30.08 in 10.0 mi WSW 3.5 mph - N/A   Clear
5:35 AM 42.8 °F - 37.4 °F 81% 30.08 in 10.0 mi Calm Calm - N/A   Clear
5:55 AM 42.8 °F 40.1 °F 35.6 °F 76% 30.08 in 10.0 mi West 4.6 mph - N/A   Clear
6:55 AM 41.0 °F 37.1 °F 35.6 °F 81% 30.10 in 10.0 mi West 5.8 mph - N/A   Clear
7:15 AM 41.0 °F 38.0 °F 35.6 °F 81% 30.11 in 10.0 mi West 4.6 mph - N/A   Clear
7:35 AM 39.2 °F 34.2 °F 35.6 °F 87% 30.11 in 10.0 mi West 6.9 mph - N/A   Clear
7:55 AM 39.2 °F 35.9 °F 35.6 °F 87% 30.12 in 10.0 mi West 4.6 mph - N/A   Clear
8:15 AM 41.0 °F 38.0 °F 35.6 °F 81% 30.12 in 10.0 mi West 4.6 mph - N/A   Clear
8:35 AM 42.8 °F 40.1 °F 35.6 °F 76% 30.12 in 10.0 mi West 4.6 mph - N/A   Clear
8:55 AM 42.8 °F 39.3 °F 37.4 °F 81% 30.13 in 10.0 mi West 5.8 mph - N/A   Clear
9:15 AM 44.6 °F 40.7 °F 37.4 °F 76% 30.14 in 10.0 mi West 6.9 mph - N/A   Clear
9:55 AM 46.4 °F 41.5 °F 37.4 °F 71% 30.14 in 10.0 mi WNW 10.4 mph - N/A   Clear
10:15 AM 48.2 °F - 37.4 °F 66% 30.15 in 10.0 mi WNW 9.2 mph - N/A   Clear
10:35 AM 48.2 °F - 37.4 °F 66% 30.16 in 10.0 mi West 12.7 mph - N/A   Clear
11:15 AM 51.8 °F - 39.2 °F 62% 30.15 in 10.0 mi WNW 11.5 mph - N/A   Clear
11:36 AM 51.8 °F - 39.2 °F 62% 30.14 in 10.0 mi West 10.4 mph - N/A   Clear
12:15 PM 55.4 °F - 37.4 °F 51% 30.12 in 10.0 mi West 12.7 mph - N/A   Clear
12:35 PM 55.4 °F - 37.4 °F 51% 30.12 in 10.0 mi West 12.7 mph - N/A   Clear
12:55 PM 57.2 °F - 37.4 °F 48% 30.12 in 10.0 mi West 16.1 mph - N/A   Clear
1:15 PM 57.2 °F - 37.4 °F 48% 30.12 in 10.0 mi West 16.1 mph - N/A   Clear
1:35 PM 57.2 °F - 35.6 °F 44% 30.11 in 10.0 mi WNW 16.1 mph 21.9 mph N/A   Clear
1:55 PM 57.2 °F - 35.6 °F 44% 30.11 in 10.0 mi West 15.0 mph - N/A   Clear
2:15 PM 59.0 °F - 35.6 °F 42% 30.11 in 10.0 mi West 18.4 mph 21.9 mph N/A   Clear
2:35 PM 57.2 °F - 33.8 °F 41% 30.12 in 10.0 mi WNW 19.6 mph 24.2 mph N/A   Clear
2:55 PM 57.2 °F - 33.8 °F 41% 30.12 in 10.0 mi WNW 15.0 mph 20.7 mph N/A   Clear
3:35 PM 57.2 °F - 30.2 °F 36% 30.15 in 10.0 mi WNW 13.8 mph - N/A   Clear
4:15 PM 53.6 °F - 30.2 °F 41% 30.16 in 10.0 mi WNW 9.2 mph - N/A   Clear
4:35 PM 50.0 °F - 30.2 °F 47% 30.16 in 10.0 mi WNW 10.4 mph - N/A   Clear
4:55 PM 48.2 °F - 30.2 °F 50% 30.17 in 10.0 mi WNW 9.2 mph - N/A   Clear
5:15 PM 46.4 °F 41.9 °F 30.2 °F 53% 30.18 in 10.0 mi WNW 9.2 mph - N/A   Clear
5:35 PM 44.6 °F 40.7 °F 30.2 °F 57% 30.19 in 10.0 mi WNW 6.9 mph - N/A   Clear
5:55 PM 42.8 °F 38.0 °F 30.2 °F 61% 30.19 in 10.0 mi West 8.1 mph - N/A   Clear
6:15 PM 42.8 °F 37.5 °F 30.2 °F 61% 30.20 in 10.0 mi West 9.2 mph - N/A   Clear
6:35 PM 41.0 °F 35.8 °F 30.2 °F 65% 30.20 in 10.0 mi West 8.1 mph - N/A   Clear
6:55 PM 39.2 °F 34.2 °F 30.2 °F 70% 30.21 in 10.0 mi West 6.9 mph - N/A   Clear
7:15 PM 37.4 °F 30.8 °F 28.4 °F 70% 30.21 in 10.0 mi WNW 9.2 mph - N/A   Clear
7:35 PM 39.2 °F 33.0 °F 30.2 °F 70% 30.22 in 10.0 mi WNW 9.2 mph - N/A   Clear
7:55 PM 39.2 °F 32.0 °F 30.2 °F 70% 30.22 in 10.0 mi WNW 11.5 mph - N/A   Clear
8:15 PM 39.2 °F 33.0 °F 30.2 °F 70% 30.22 in 10.0 mi WNW 9.2 mph - N/A   Clear
8:35 PM 39.2 °F 33.0 °F 30.2 °F 70% 30.23 in 10.0 mi WNW 9.2 mph - N/A   Clear
8:55 PM 39.2 °F 32.5 °F 30.2 °F 70% 30.24 in 10.0 mi WNW 10.4 mph - N/A   Clear
9:15 PM 37.4 °F 31.4 °F 28.4 °F 70% 30.25 in 10.0 mi West 8.1 mph - N/A   Clear
9:35 PM 37.4 °F 30.3 °F 28.4 °F 70% 30.25 in 10.0 mi WNW 10.4 mph - N/A   Clear
9:55 PM 37.4 °F 31.4 °F 28.4 °F 70% 30.26 in 10.0 mi NW 8.1 mph - N/A   Clear
10:15 PM 37.4 °F 31.4 °F 28.4 °F 70% 30.28 in 10.0 mi North 8.1 mph - N/A   Clear
10:35 PM 39.2 °F 33.6 °F 26.6 °F 61% 30.28 in 10.0 mi NNW 8.1 mph - N/A   Clear
10:55 PM 37.4 °F 30.8 °F 26.6 °F 65% 30.30 in 10.0 mi NNW 9.2 mph - N/A   Clear
11:15 PM 37.4 °F 30.3 °F 26.6 °F 65% 30.31 in 10.0 mi NNW 10.4 mph - N/A   Clear
11:35 PM 37.4 °F 31.4 °F 24.8 °F 60% 30.32 in 10.0 mi NNW 8.1 mph - N/A   Clear
11:55 PM 37.4 °F 31.4 °F 24.8 °F 60% 30.33 in 10.0 mi NNW 8.1 mph - N/A   Clear